When you browse on this site, cookies collect data to enhance your experience and personalize the content and advertising you see.
Visit our Privacy Policy to learn more. By continuing to use the site, you agree to this use of cookies and data.
  • In Slovakia
  • List of Countries
  • For 7 days
  • Water Temperature
  • Satellite Maps
  • Weather Map
  • Weather Widgets
  • user-avatar
    Login

    Hourly Weather La Massana

    Today, 26 May, Sunday

    Time Temperature Precipitation Wind Pressure Humidity
    00:00 +3°C° 0 mm 2 mps 610 mmHg 91%
    01:00 +2°C° 0 mm 2 mps 609 mmHg 91%
    02:00 +2°C° 0 mm 2 mps 609 mmHg 92%
    03:00 +2°C° 0 mm 2 mps 609 mmHg 92%
    04:00 +2°C° 0 mm 2 mps 609 mmHg 89%
    05:00 +3°C° 0 mm 2 mps 609 mmHg 85%
    06:00 +3°C° 0 mm 2 mps 609 mmHg 82%
    07:00 +4°C° 0 mm 3 mps 610 mmHg 75%
    08:00 +7°C° 0 mm 3 mps 611 mmHg 68%
    09:00 +9°C° 0 mm 3 mps 612 mmHg 61%
    10:00 +10°C° 0 mm 3 mps 612 mmHg 59%
    11:00 +10°C° 0 mm 3 mps 612 mmHg 56%
    12:00 +11°C° 0 mm 4 mps 612 mmHg 54%
    13:00 +11°C° 0 mm 4 mps 612 mmHg 53%
    14:00 +11°C° 0 mm 4 mps 612 mmHg 52%
    15:00 +12°C° 0 mm 3 mps 612 mmHg 51%
    16:00 +11°C° 0 mm 3 mps 611 mmHg 56%
    17:00 +9°C° 0 mm 3 mps 611 mmHg 62%
    18:00 +8°C° 0 mm 3 mps 610 mmHg 67%
    19:00 +7°C° 0 mm 2 mps 610 mmHg 74%
    20:00 +5°C° 0 mm 2 mps 609 mmHg 81%
    21:00 +4°C° 0 mm 2 mps 609 mmHg 88%
    22:00 +4°C° 0 mm 2 mps 609 mmHg 88%
    23:00 +5°C° 0 mm 2 mps 609 mmHg 89%

    Tomorrow, 27 May, Monday

    Time Temperature Precipitation Wind Pressure Humidity
    00:00 +5°C° 0 mm 2 mps 609 mmHg 89%
    01:00 +5°C° 0 mm 2 mps 609 mmHg 90%
    02:00 +4°C° 0 mm 2 mps 608 mmHg 91%
    03:00 +4°C° 0 mm 2 mps 608 mmHg 93%
    04:00 +5°C° 0 mm 2 mps 608 mmHg 90%
    05:00 +5°C° 0 mm 2 mps 608 mmHg 87%
    06:00 +5°C° 0 mm 2 mps 608 mmHg 84%
    07:00 +7°C° 0 mm 2 mps 609 mmHg 75%
    08:00 +9°C° 0 mm 2 mps 610 mmHg 67%
    09:00 +12°C° 0 mm 2 mps 611 mmHg 59%
    10:00 +13°C° 0 mm 2 mps 611 mmHg 58%
    11:00 +13°C° 0 mm 2 mps 611 mmHg 57%
    12:00 +14°C° 0 mm 2 mps 611 mmHg 57%
    13:00 +14°C° 0.1 mm 2 mps 610 mmHg 59%
    14:00 +13°C° 0.1 mm 2 mps 610 mmHg 61%
    15:00 +13°C° 0.1 mm 2 mps 610 mmHg 64%
    16:00 +12°C° 0.2 mm 2 mps 609 mmHg 69%
    17:00 +10°C° 0.2 mm 2 mps 609 mmHg 75%
    18:00 +9°C° 0.2 mm 3 mps 608 mmHg 81%
    19:00 +7°C° 0 mm 2 mps 608 mmHg 85%
    20:00 +6°C° 0 mm 2 mps 608 mmHg 89%
    21:00 +5°C° 0 mm 2 mps 608 mmHg 93%
    22:00 +5°C° 0 mm 2 mps 608 mmHg 93%
    23:00 +5°C° 0 mm 2 mps 608 mmHg 92%

    Day after tomorrow, 28 May, Tuesday

    Time Temperature Precipitation Wind Pressure Humidity
    00:00 +5°C° 0 mm 2 mps 608 mmHg 92%
    01:00 +5°C° 0 mm 2 mps 608 mmHg 92%
    02:00 +5°C° 0 mm 2 mps 607 mmHg 92%
    03:00 +4°C° 0 mm 2 mps 607 mmHg 92%
    04:00 +4°C° 0 mm 2 mps 608 mmHg 90%
    05:00 +4°C° 0 mm 2 mps 608 mmHg 89%
    06:00 +4°C° 0 mm 2 mps 608 mmHg 87%
    07:00 +6°C° 0 mm 2 mps 609 mmHg 76%
    08:00 +7°C° 0 mm 2 mps 609 mmHg 64%
    09:00 +9°C° 0 mm 2 mps 610 mmHg 53%
    10:00 +10°C° 0 mm 2 mps 610 mmHg 49%
    11:00 +11°C° 0 mm 3 mps 611 mmHg 44%
    12:00 +12°C° 0 mm 3 mps 611 mmHg 40%
    13:00 +12°C° 0 mm 3 mps 611 mmHg 45%
    14:00 +11°C° 0 mm 3 mps 610 mmHg 49%
    15:00 +11°C° 0 mm 3 mps 610 mmHg 54%
    16:00 +9°C° 0.2 mm 3 mps 609 mmHg 61%
    17:00 +7°C° 0.2 mm 3 mps 609 mmHg 68%
    18:00 +5°C° 0.2 mm 3 mps 608 mmHg 75%
    19:00 +3°C° 0 mm 3 mps 608 mmHg 79%
    20:00 +2°C° 0 mm 3 mps 608 mmHg 83%
    21:00 0°C° 0 mm 3 mps 608 mmHg 87%
    22:00 -1°C° 0 mm 3 mps 608 mmHg 87%
    23:00 -1°C° 0 mm 3 mps 607 mmHg 87%

    29 May, Wednesday

    Time Temperature Precipitation Wind Pressure Humidity
    00:00 -1°C° 0 mm 2 mps 607 mmHg 87%
    01:00 -1°C° 0 mm 2 mps 607 mmHg 88%
    02:00 -2°C° 0 mm 2 mps 607 mmHg 88%
    03:00 -2°C° 0 mm 2 mps 607 mmHg 89%
    04:00 -1°C° 0 mm 3 mps 608 mmHg 86%
    05:00 0°C° 0 mm 3 mps 608 mmHg 83%
    06:00 0°C° 0 mm 3 mps 609 mmHg 80%
    07:00 +2°C° 0 mm 3 mps 610 mmHg 69%
    08:00 +4°C° 0 mm 3 mps 611 mmHg 58%
    09:00 +6°C° 0 mm 4 mps 612 mmHg 47%
    10:00 +7°C° 0 mm 4 mps 612 mmHg 45%
    11:00 +8°C° 0 mm 4 mps 613 mmHg 43%
    12:00 +10°C° 0 mm 4 mps 613 mmHg 40%
    13:00 +10°C° 0 mm 4 mps 613 mmHg 41%
    14:00 +10°C° 0 mm 4 mps 613 mmHg 43%
    15:00 +10°C° 0 mm 4 mps 613 mmHg 44%
    16:00 +8°C° 0 mm 4 mps 613 mmHg 49%
    17:00 +7°C° 0 mm 3 mps 612 mmHg 54%
    18:00 +5°C° 0 mm 3 mps 612 mmHg 60%
    19:00 +3°C° 0 mm 3 mps 612 mmHg 68%
    20:00 +3°C° 0 mm 2 mps 612 mmHg 77%
    21:00 +1°C° 0 mm 2 mps 612 mmHg 85%
    22:00 +1°C° 0 mm 2 mps 612 mmHg 86%
    23:00 +1°C° 0 mm 2 mps 612 mmHg 87%

    30 May, Thursday

    Time Temperature Precipitation Wind Pressure Humidity
    00:00 +1°C° 0 mm 2 mps 613 mmHg 88%
    01:00 +1°C° 0 mm 2 mps 613 mmHg 89%
    02:00 +1°C° 0 mm 2 mps 613 mmHg 89%
    03:00 +2°C° 0 mm 2 mps 613 mmHg 89%
    04:00 +2°C° 0 mm 2 mps 613 mmHg 85%
    05:00 +3°C° 0 mm 2 mps 614 mmHg 81%
    06:00 +4°C° 0 mm 2 mps 614 mmHg 77%
    07:00 +6°C° 0 mm 2 mps 615 mmHg 65%
    08:00 +8°C° 0 mm 2 mps 616 mmHg 52%
    09:00 +10°C° 0 mm 3 mps 618 mmHg 39%
    10:00 +11°C° 0 mm 3 mps 618 mmHg 39%
    11:00 +12°C° 0 mm 3 mps 618 mmHg 38%
    12:00 +14°C° 0 mm 3 mps 618 mmHg 38%
    13:00 +14°C° 0 mm 3 mps 618 mmHg 40%
    14:00 +14°C° 0 mm 3 mps 618 mmHg 42%
    15:00 +14°C° 0 mm 3 mps 618 mmHg 44%
    16:00 +12°C° 0 mm 3 mps 618 mmHg 50%
    17:00 +11°C° 0 mm 3 mps 617 mmHg 57%
    18:00 +10°C° 0 mm 2 mps 617 mmHg 63%
    19:00 +8°C° 0 mm 2 mps 616 mmHg 73%
    20:00 +6°C° 0 mm 2 mps 616 mmHg 82%
    21:00 +4°C° 0 mm 2 mps 615 mmHg 92%
    22:00 +4°C° 0 mm 2 mps 615 mmHg 90%
    23:00 +3°C° 0 mm 2 mps 615 mmHg 88%

    31 May, Friday

    Time Temperature Precipitation Wind Pressure Humidity
    00:00 +3°C° 0 mm 2 mps 615 mmHg 86%
    01:00 +3°C° 0 mm 2 mps 615 mmHg 84%
    02:00 +3°C° 0 mm 2 mps 615 mmHg 82%
    03:00 +3°C° 0 mm 2 mps 615 mmHg 80%
    04:00 +4°C° 0 mm 2 mps 616 mmHg 77%
    05:00 +7°C° 0 mm 1 mps 616 mmHg 74%
    06:00 +8°C° 0 mm 1 mps 617 mmHg 70%
    07:00 +11°C° 0 mm 1 mps 618 mmHg 62%
    08:00 +14°C° 0 mm 1 mps 619 mmHg 53%
    09:00 +16°C° 0 mm 1 mps 621 mmHg 45%
    10:00 +18°C° 0 mm 1 mps 621 mmHg 43%
    11:00 +20°C° 0 mm 1 mps 621 mmHg 42%
    12:00 +21°C° 0 mm 1 mps 622 mmHg 40%
    13:00 +21°C° 0 mm 1 mps 621 mmHg 42%
    14:00 +20°C° 0 mm 1 mps 621 mmHg 44%
    15:00 +20°C° 0 mm 1 mps 621 mmHg 46%
    16:00 +19°C° 0 mm 1 mps 620 mmHg 53%
    17:00 +16°C° 0 mm 1 mps 619 mmHg 59%
    18:00 +15°C° 0 mm 1 mps 619 mmHg 66%
    19:00 +13°C° 0 mm 1 mps 618 mmHg 74%
    20:00 +11°C° 0 mm 1 mps 618 mmHg 81%
    21:00 +8°C° 0 mm 0 mps 617 mmHg 89%
    22:00 +9°C° 0 mm 1 mps 617 mmHg 89%
    23:00 +9°C° 0 mm 1 mps 617 mmHg 89%
    Show more